CPA245 ZYTX-VHHH

Flight info

Callsign CPA245
Flight time N/A
Altitude 40100
Route OMD71D OMDUS A575 CHG/K0913S1310 G332 MUDAM G212 VYK W37 GUSIV/K0909S1250 W37 PEXID/K0904S1310 W37 OMBEB/K0909S1250 R473 NNX/K0898S1310 R473 WYN W18 NLG W23 ZUH R473 SIERA
Aircraft A359/H-SDE2E3GHIJ1J3J4J5LM1ORWXY/LB1D1

Departure

Time N/A
Airport Shenyang Taoxian International Airport (ZYTX)

Arrival

Time 2026-05-03 21:32
Airport Hong Kong International Airport (VHHH)
Time Latitude Longitude Altitude Speed Heading
2026-05-03 20:15 29.10329 113.74399 41036 ft 463 kts 189°
2026-05-03 20:15 29.03854 113.74586 41044 ft 461 kts 189°
2026-05-03 20:16 28.97417 113.74774 41036 ft 463 kts 189°
2026-05-03 20:16 28.90951 113.74962 41040 ft 462 kts 189°
2026-05-03 20:17 28.84482 113.75155 41054 ft 463 kts 189°
2026-05-03 20:17 28.78002 113.75349 41046 ft 462 kts 189°
2026-05-03 20:18 28.71579 113.75297 41061 ft 457 kts 193°
2026-05-03 20:18 28.65233 113.74832 41056 ft 457 kts 194°
2026-05-03 20:19 28.58848 113.74366 41055 ft 457 kts 194°
2026-05-03 20:19 28.52505 113.73906 41067 ft 456 kts 194°
2026-05-03 20:20 28.46110 113.73436 41042 ft 456 kts 194°
2026-05-03 20:20 28.39742 113.72974 41057 ft 456 kts 194°
2026-05-03 20:21 28.33394 113.72510 41030 ft 457 kts 194°
2026-05-03 20:21 28.26998 113.72043 41033 ft 458 kts 194°
2026-05-03 20:22 28.20596 113.71581 41044 ft 458 kts 194°
2026-05-03 20:22 28.14213 113.71115 41043 ft 456 kts 194°
2026-05-03 20:23 28.07847 113.70589 41028 ft 456 kts 195°
2026-05-03 20:23 28.01465 113.70009 41048 ft 457 kts 195°
2026-05-03 20:24 27.95081 113.69428 41036 ft 458 kts 195°
2026-05-03 20:24 27.88752 113.68861 41045 ft 458 kts 195°
2026-05-03 20:25 27.82381 113.68301 41032 ft 459 kts 194°
2026-05-03 20:25 27.75989 113.67738 41045 ft 459 kts 195°
2026-05-03 20:26 27.69574 113.67169 41037 ft 458 kts 195°
2026-05-03 20:26 27.63157 113.66680 41038 ft 463 kts 192°
2026-05-03 20:27 27.56679 113.66528 41050 ft 463 kts 192°
2026-05-03 20:27 27.50196 113.66378 41035 ft 463 kts 192°
2026-05-03 20:28 27.43786 113.66235 41050 ft 464 kts 192°
2026-05-03 20:28 27.37315 113.66093 41046 ft 464 kts 192°
2026-05-03 20:29 27.30817 113.65950 41033 ft 464 kts 191°
2026-05-03 20:29 27.24316 113.65886 41046 ft 468 kts 189°
2026-05-03 20:30 27.17671 113.66425 41048 ft 477 kts 183°
2026-05-03 20:30 27.11081 113.67711 41039 ft 480 kts 178°
2026-05-03 20:31 27.04492 113.69614 41049 ft 483 kts 176°
2026-05-03 20:31 26.97924 113.71559 41044 ft 484 kts 176°
2026-05-03 20:32 26.91371 113.73497 41052 ft 482 kts 176°
2026-05-03 20:32 26.84832 113.75422 41066 ft 483 kts 176°
2026-05-03 20:33 26.78267 113.77354 41063 ft 484 kts 176°
2026-05-03 20:33 26.71683 113.79311 41072 ft 486 kts 175°
2026-05-03 20:34 26.65133 113.81369 41068 ft 486 kts 175°
2026-05-03 20:34 26.58593 113.83433 41074 ft 486 kts 175°
2026-05-03 20:35 26.52006 113.85497 41082 ft 487 kts 174°
2026-05-03 20:35 26.45449 113.87470 41090 ft 486 kts 176°
2026-05-03 20:36 26.38867 113.89347 41082 ft 485 kts 175°
2026-05-03 20:36 26.32312 113.91228 41106 ft 485 kts 175°
2026-05-03 20:37 26.25735 113.93122 41113 ft 487 kts 175°
2026-05-03 20:37 26.19159 113.95021 41126 ft 487 kts 175°
2026-05-03 20:38 26.12555 113.96930 41129 ft 488 kts 175°
2026-05-03 20:38 26.05922 113.98844 41126 ft 488 kts 175°
2026-05-03 20:39 25.99304 114.00760 41133 ft 487 kts 175°
2026-05-03 20:39 25.92711 114.02705 41117 ft 488 kts 175°
2026-05-03 20:40 25.86071 114.04673 41105 ft 489 kts 174°
2026-05-03 20:40 25.79466 114.06632 41103 ft 489 kts 174°
2026-05-03 20:41 25.72833 114.08597 41082 ft 489 kts 174°
2026-05-03 20:41 25.66265 114.10541 41082 ft 489 kts 174°
2026-05-03 20:42 25.59645 114.12500 41082 ft 490 kts 174°
2026-05-03 20:42 25.52994 114.14464 41091 ft 489 kts 174°
2026-05-03 20:43 25.46396 114.16413 41081 ft 489 kts 174°
2026-05-03 20:43 25.39775 114.18368 41085 ft 488 kts 174°
2026-05-03 20:44 25.33166 114.20318 41056 ft 490 kts 174°
2026-05-03 20:44 25.26549 114.22272 41069 ft 489 kts 174°
2026-05-03 20:45 25.19926 114.24213 41064 ft 488 kts 175°
2026-05-03 20:45 25.13230 114.25513 41054 ft 482 kts 183°
2026-05-03 20:46 25.06577 114.25803 41049 ft 473 kts 190°
2026-05-03 20:46 25.00048 114.25144 41047 ft 464 kts 197°
2026-05-03 20:47 24.93687 114.23806 41052 ft 463 kts 199°
2026-05-03 20:47 24.87359 114.22428 41051 ft 463 kts 199°
2026-05-03 20:48 24.80948 114.21045 41052 ft 464 kts 199°
2026-05-03 20:48 24.74606 114.19672 41059 ft 465 kts 199°
2026-05-03 20:49 24.68228 114.18292 41062 ft 465 kts 199°
2026-05-03 20:49 24.61822 114.16907 41057 ft 465 kts 199°
2026-05-03 20:50 24.55439 114.15527 41047 ft 465 kts 199°
2026-05-03 20:50 24.49011 114.14141 41043 ft 466 kts 199°
2026-05-03 20:51 24.42632 114.12769 41043 ft 467 kts 199°
2026-05-03 20:51 24.36209 114.11368 41042 ft 465 kts 200°
2026-05-03 20:52 24.29954 114.09569 41044 ft 463 kts 203°
2026-05-03 20:52 24.23681 114.07654 41044 ft 463 kts 202°
2026-05-03 20:53 24.17436 114.05752 41036 ft 464 kts 202°
2026-05-03 20:53 24.11206 114.03857 41046 ft 463 kts 202°
2026-05-03 20:54 24.04915 114.01945 41057 ft 465 kts 202°
2026-05-03 20:54 23.95461 113.99078 41068 ft 465 kts 202°
2026-05-03 20:55 23.89191 113.97181 41054 ft 465 kts 202°
2026-05-03 20:55 23.83089 113.95346 41034 ft 466 kts 202°
2026-05-03 20:56 23.76784 113.93449 41027 ft 467 kts 202°
2026-05-03 20:56 23.70478 113.91549 41022 ft 467 kts 202°
2026-05-03 20:57 23.64151 113.89642 41016 ft 468 kts 202°
2026-05-03 20:57 23.57849 113.87746 40999 ft 468 kts 202°
2026-05-03 20:58 23.51521 113.85844 41004 ft 468 kts 202°
2026-05-03 20:58 23.45204 113.83933 40996 ft 469 kts 202°
2026-05-03 20:59 23.38879 113.82014 40988 ft 469 kts 202°
2026-05-03 20:59 23.32522 113.80096 40993 ft 470 kts 202°
2026-05-03 21:00 23.28317 113.78829 40984 ft 470 kts 202°
2026-05-03 21:00 23.19842 113.76279 40982 ft 471 kts 202°
2026-05-03 21:01 23.13535 113.74386 40975 ft 472 kts 201°
2026-05-03 21:01 23.07138 113.72465 40974 ft 472 kts 201°
2026-05-03 21:02 23.03989 113.71523 40659 ft 473 kts 201°
2026-05-03 21:02 23.00789 113.70567 40157 ft 469 kts 201°
2026-05-03 21:02 22.97666 113.69635 39602 ft 465 kts 201°
2026-05-03 21:02 22.94536 113.68702 38987 ft 462 kts 201°
2026-05-03 21:03 22.91406 113.67763 38367 ft 463 kts 201°
2026-05-03 21:03 22.88324 113.66839 37756 ft 463 kts 201°
2026-05-03 21:03 22.85234 113.65901 37140 ft 463 kts 201°
2026-05-03 21:03 22.82084 113.64940 36526 ft 463 kts 201°
2026-05-03 21:04 22.78970 113.63989 35843 ft 464 kts 201°
2026-05-03 21:04 22.75851 113.63037 35126 ft 464 kts 201°
2026-05-03 21:04 22.72716 113.62081 34411 ft 464 kts 200°
2026-05-03 21:04 22.69612 113.61136 33693 ft 466 kts 200°
2026-05-03 21:05 22.66464 113.60178 32926 ft 468 kts 200°
2026-05-03 21:05 22.63320 113.59222 32183 ft 469 kts 200°
2026-05-03 21:05 22.60161 113.58266 31594 ft 463 kts 200°
2026-05-03 21:05 22.57072 113.57332 31162 ft 459 kts 200°
2026-05-03 21:06 22.53995 113.56400 30718 ft 454 kts 200°
2026-05-03 21:06 22.50923 113.55463 30242 ft 450 kts 200°
2026-05-03 21:06 22.47934 113.54544 29738 ft 447 kts 200°
2026-05-03 21:06 22.44948 113.53625 29185 ft 443 kts 200°
2026-05-03 21:07 22.41945 113.52702 28666 ft 438 kts 200°
2026-05-03 21:07 22.39005 113.51802 28158 ft 434 kts 200°
2026-05-03 21:07 22.36110 113.50915 27656 ft 431 kts 200°
2026-05-03 21:07 22.33206 113.50026 27160 ft 427 kts 200°
2026-05-03 21:08 22.30329 113.49147 26663 ft 423 kts 200°
2026-05-03 21:08 22.27492 113.48280 26164 ft 420 kts 200°
2026-05-03 21:08 22.24640 113.47554 25675 ft 420 kts 193°
2026-05-03 21:08 22.21727 113.47417 25194 ft 423 kts 182°
2026-05-03 21:09 22.18762 113.47903 24700 ft 427 kts 171°
2026-05-03 21:09 22.15918 113.48856 24224 ft 427 kts 167°
2026-05-03 21:09 22.13086 113.49909 23743 ft 425 kts 166°
2026-05-03 21:09 22.10295 113.50960 23274 ft 422 kts 166°
2026-05-03 21:10 22.07536 113.51990 22812 ft 419 kts 166°
2026-05-03 21:10 22.04799 113.53001 22448 ft 414 kts 167°
2026-05-03 21:10 22.02054 113.54007 22254 ft 410 kts 168°
2026-05-03 21:10 21.99325 113.54636 22059 ft 389 kts 184°
2026-05-03 21:11 21.96694 113.54341 21745 ft 371 kts 201°
2026-05-03 21:11 21.94345 113.53329 21315 ft 363 kts 210°
2026-05-03 21:11 21.92072 113.52174 20907 ft 359 kts 210°
2026-05-03 21:11 21.89799 113.51017 20513 ft 355 kts 210°
2026-05-03 21:12 21.87554 113.49888 20127 ft 352 kts 209°
2026-05-03 21:12 21.85345 113.48789 19743 ft 348 kts 209°
2026-05-03 21:12 21.83150 113.47699 19346 ft 345 kts 209°
2026-05-03 21:12 21.80954 113.46609 18952 ft 343 kts 209°
2026-05-03 21:13 21.78784 113.45531 18621 ft 337 kts 209°
2026-05-03 21:13 21.76679 113.44491 18447 ft 327 kts 209°
2026-05-03 21:13 21.74656 113.43491 18376 ft 314 kts 209°
2026-05-03 21:13 21.72697 113.42526 18300 ft 302 kts 208°
2026-05-03 21:14 21.70654 113.41939 17979 ft 309 kts 187°
2026-05-03 21:14 21.68488 113.42292 17652 ft 319 kts 164°
2026-05-03 21:14 21.66602 113.43534 17344 ft 327 kts 143°
2026-05-03 21:14 21.64964 113.45277 17049 ft 327 kts 139°
2026-05-03 21:15 21.63385 113.47017 16757 ft 325 kts 139°
2026-05-03 21:15 21.61812 113.48747 16460 ft 324 kts 139°
2026-05-03 21:15 21.60215 113.50490 16158 ft 322 kts 140°
2026-05-03 21:15 21.58643 113.52190 15849 ft 321 kts 140°
2026-05-03 21:16 21.57078 113.53878 15554 ft 319 kts 139°
2026-05-03 21:16 21.55696 113.55753 15225 ft 326 kts 119°
2026-05-03 21:16 21.55171 113.58117 14909 ft 332 kts 91°
2026-05-03 21:16 21.55668 113.60533 14603 ft 331 kts 63°
2026-05-03 21:17 21.57034 113.62474 14335 ft 325 kts 43°
2026-05-03 21:17 21.58138 113.63603 14127 ft 325 kts 41°
2026-05-03 21:17 21.60341 113.65795 13744 ft 323 kts 41°
2026-05-03 21:17 21.61966 113.67455 13456 ft 322 kts 42°
2026-05-03 21:18 21.63588 113.69151 13160 ft 321 kts 42°
2026-05-03 21:18 21.65161 113.70805 12885 ft 319 kts 41°
2026-05-03 21:18 21.66799 113.72427 12598 ft 318 kts 40°
2026-05-03 21:18 21.68432 113.74020 12294 ft 316 kts 40°
2026-05-03 21:19 21.70075 113.75619 12003 ft 315 kts 40°
2026-05-03 21:19 21.71682 113.77183 11711 ft 313 kts 40°
2026-05-03 21:19 21.73316 113.78777 11419 ft 311 kts 40°
2026-05-03 21:19 21.74914 113.80338 11140 ft 310 kts 40°
2026-05-03 21:20 21.76504 113.81894 10804 ft 310 kts 40°
2026-05-03 21:20 21.78113 113.83467 10406 ft 312 kts 40°
2026-05-03 21:20 21.79711 113.85028 10019 ft 313 kts 40°
2026-05-03 21:20 21.81341 113.86623 9630 ft 314 kts 40°
2026-05-03 21:21 21.82956 113.88204 9236 ft 314 kts 40°
2026-05-03 21:21 21.84758 113.89500 8784 ft 310 kts 17°
2026-05-03 21:21 21.86849 113.89687 8490 ft 296 kts 344°
2026-05-03 21:21 21.88727 113.88881 8110 ft 291 kts 330°
2026-05-03 21:22 21.90532 113.87875 7714 ft 291 kts 330°
2026-05-03 21:22 21.92354 113.86871 7428 ft 287 kts 331°
2026-05-03 21:22 21.94147 113.85919 7051 ft 287 kts 332°
2026-05-03 21:22 21.95937 113.84991 6697 ft 286 kts 333°
2026-05-03 21:23 21.97753 113.84070 6411 ft 282 kts 333°
2026-05-03 21:23 21.99526 113.83178 6134 ft 278 kts 334°
2026-05-03 21:23 22.01285 113.82298 5864 ft 274 kts 334°
2026-05-03 21:23 22.02996 113.81445 5605 ft 270 kts 334°
2026-05-03 21:24 22.04697 113.80595 5350 ft 266 kts 335°
2026-05-03 21:24 22.06385 113.79752 5099 ft 263 kts 335°
2026-05-03 21:24 22.08043 113.78925 4868 ft 259 kts 335°
2026-05-03 21:24 22.09671 113.78114 4631 ft 255 kts 335°
2026-05-03 21:25 22.11274 113.77317 4398 ft 252 kts 336°
2026-05-03 21:25 22.12878 113.76523 4196 ft 247 kts 336°
2026-05-03 21:25 22.14415 113.75760 3968 ft 240 kts 336°
2026-05-03 21:25 22.15937 113.75002 3693 ft 235 kts 336°
2026-05-03 21:26 22.17404 113.74271 3447 ft 230 kts 336°
2026-05-03 21:26 22.18840 113.73553 3189 ft 225 kts 337°
2026-05-03 21:26 22.20273 113.72837 2950 ft 220 kts 338°
2026-05-03 21:26 22.21692 113.72407 2697 ft 211 kts
2026-05-03 21:27 22.23019 113.73003 2392 ft 204 kts 38°
2026-05-03 21:27 22.24096 113.73959 2227 ft 193 kts 38°
2026-05-03 21:27 22.25135 113.74812 2060 ft 184 kts 36°
2026-05-03 21:27 22.26174 113.75613 1865 ft 178 kts 35°
2026-05-03 21:28 22.26937 113.76592 1758 ft 166 kts 64°
2026-05-03 21:28 22.27292 113.77718 1726 ft 151 kts 71°
2026-05-03 21:28 22.27568 113.78745 1707 ft 133 kts 70°
2026-05-03 21:28 22.27844 113.79696 1712 ft 130 kts 69°
2026-05-03 21:29 22.28130 113.80622 1716 ft 130 kts 68°
2026-05-03 21:29 22.28426 113.81549 1608 ft 130 kts 68°
2026-05-03 21:29 22.28729 113.82484 1435 ft 130 kts 68°
2026-05-03 21:29 22.29025 113.83399 1267 ft 130 kts 68°
2026-05-03 21:30 22.29326 113.84327 1098 ft 129 kts 68°
2026-05-03 21:30 22.29622 113.85242 933 ft 129 kts 68°
2026-05-03 21:30 22.29917 113.86156 765 ft 129 kts 68°
2026-05-03 21:30 22.30212 113.87072 596 ft 128 kts 68°
2026-05-03 21:31 22.30509 113.87992 428 ft 128 kts 68°
2026-05-03 21:31 22.30805 113.88911 261 ft 128 kts 68°
2026-05-03 21:31 22.31097 113.89817 98 ft 127 kts 68°
2026-05-03 21:31 22.31377 113.90674 40 ft 102 kts 70°
2026-05-03 21:32 22.31543 113.91155 40 ft 34 kts 69°
2026-05-03 21:32 22.31627 113.91413 40 ft 39 kts 75°
2026-05-03 21:32 22.31648 113.91695 40 ft 28 kts 101°
2026-05-03 21:32 22.31641 113.91737 40 ft 0 kts 103°
2026-05-03 21:34 22.31640 113.91740 40 ft 1 kts 102°
2026-05-03 21:35 22.31636 113.91761 40 ft 4 kts 101°
2026-05-03 21:35 22.31628 113.91801 40 ft 6 kts 103°
2026-05-03 21:35 22.31615 113.91857 40 ft 8 kts 98°
2026-05-03 21:35 22.31610 113.91927 40 ft 10 kts 87°
2026-05-03 21:36 22.31626 113.92017 40 ft 13 kts 74°
2026-05-03 21:36 22.31659 113.92123 40 ft 15 kts 70°
2026-05-03 21:36 22.31697 113.92245 40 ft 18 kts 71°
2026-05-03 21:36 22.31725 113.92358 40 ft 6 kts 103°
2026-05-03 21:37 22.31714 113.92377 40 ft 2 kts 128°
2026-05-03 21:37 22.31700 113.92399 40 ft 5 kts 122°
2026-05-03 21:37 22.31672 113.92435 40 ft 7 kts 136°
2026-05-03 21:37 22.31628 113.92481 40 ft 9 kts 131°
2026-05-03 21:38 22.31583 113.92547 40 ft 11 kts 122°
2026-05-03 21:38 22.31543 113.92635 40 ft 14 kts 113°
2026-05-03 21:38 22.31499 113.92741 40 ft 16 kts 108°
2026-05-03 21:38 22.31504 113.92834 40 ft 5 kts 66°
2026-05-03 21:39 22.31510 113.92861 40 ft 2 kts 92°
2026-05-03 21:39 22.31506 113.92889 40 ft 3 kts 105°
2026-05-03 21:39 22.31499 113.92899 40 ft 2 kts 131°
2026-05-03 21:39 22.31477 113.92911 40 ft 0 kts 164°
2026-05-03 21:40 22.31461 113.92918 40 ft 3 kts 159°
2026-05-03 21:40 22.31432 113.92928 40 ft 0 kts 165°
2026-05-03 21:40 22.31429 113.92928 40 ft 1 kts 165°
2026-05-03 21:40 22.31424 113.92931 40 ft 0 kts 159°